Location: Unspecified
(0.0000°N, 0.0000°E)
Time: 11:57:24
(UTC+00:00)

N. Korean satellite - Pass Details

Date: 17 March 2019
Orbit: 456 x 510 km, 97.2° (Epoch: 23 March)

Event Time Altitude Azimuth Distance (km) Brightness Sun altitude
Rises 05:21:08 0° 27° (NNE) 2,524 10.6 -11.8°
Reaches altitude 10° 05:23:19 10° 37° (NE) 1,658 9.8 -11.3°
Maximum altitude 05:26:31 31° 101° (ESE) 874 8.7 -10.5°
Drops below altitude 10° 05:29:47 10° 165° (SSE) 1,693 9.5 -9.7°
Sets 05:32:02 0° 175° (S) 2,588 10.3 -9.1°
